Retour au catalogue

STARLINK-30840

ActifCommunicationsVLEO
NORAD 58223·PAYLOAD·🇺🇸 United States

Lancé Nov 3, 2023 depuis Cape Canaveral Space Force Station

Loading…

Prochains Passages (prochaines 24 heures)

TLE

FraisSource: CelesTrak SupGP

Époque: Sep 14, 2026, 20:56 UTC

1 58223C 23170T   26257.87270833  .00020628  00000+0  74721-3 0  2571
2 58223  43.0021 206.1488 0001287 258.4582 277.9140 15.27565020    17

Suivez STARLINK-30840 en temps réel avec AllMySat

Download on the App Store